GW6563 Weather Reports


Display with metric or nautical units.
time (UTC)temp
F
wind
direction
speed
MPH
gust
MPH
rain 1hr
in
rain 24hr
in
rain mn
in
humidity
%
barometer
mb
20260504042007 35 206 0.0 0.0 0.00 0.00 0.00 84 1014.7
20260504041526 35 206 0.0 0.0 0.00 0.00 0.00 85 1014.9
20260504041004 35 206 0.0 0.0 0.00 0.00 0.00 85 1014.9
20260504040504 35 206 0.0 0.0 0.00 0.00 0.00 83 1015.0
20260504040016 35 206 0.0 0.0 0.00 0.00 0.00 83 1015.0
20260504035508 36 206 0.0 0.0 0.00 0.00 0.00 83 1015.0
20260504035005 36 206 0.0 0.0 0.00 0.00 0.00 84 1015.0
20260504034522 36 206 0.0 0.0 0.00 0.00 0.00 82 1015.0
20260504034010 36 206 0.0 0.0 0.00 0.00 0.00 82 1015.0
20260504033506 36 206 0.0 0.0 0.00 0.00 0.00 81 1015.0
20260504033025 36 206 0.0 0.0 0.00 0.00 0.00 81 1015.1
20260504032508 37 206 0.0 0.0 0.00 0.00 0.00 80 1015.1
20260504032009 37 206 0.0 0.0 0.00 0.00 0.00 80 1015.0
20260504031528 37 206 0.0 0.0 0.00 0.00 0.00 81 1015.0
20260504031007 37 206 0.0 0.0 0.00 0.00 0.00 83 1015.0
20260504030507 37 203 0.0 0.0 0.00 0.00 0.00 80 1015.0
20260504030027 37 203 0.0 0.0 0.00 0.00 0.00 79 1015.0
20260504025504 37 203 0.0 0.0 0.00 0.00 0.00 79 1015.0
20260504025007 37 203 0.0 0.0 0.00 0.00 0.00 79 1015.0
20260504024517 37 203 0.0 0.0 0.00 0.00 0.00 77 1015.1
20260504024005 38 203 0.0 0.0 0.00 0.00 0.00 77 1015.1
20260504023504 38 203 0.0 0.0 0.00 0.00 0.00 76 1015.1
20260504023023 38 203 0.0 0.0 0.00 0.00 0.00 76 1015.2
20260504022505 38 203 0.0 0.0 0.00 0.00 0.00 76 1015.1
20260504022008 39 203 0.0 0.0 0.00 0.00 0.00 75 1015.1
20260504021528 39 203 0.0 0.0 0.00 0.00 0.00 75 1015.1
20260504021009 39 203 0.0 0.0 0.00 0.00 0.00 75 1015.1
20260504020508 39 206 0.0 0.0 0.00 0.00 0.00 74 1015.0
20260504020029 40 206 0.0 0.0 0.00 0.00 0.00 73 1015.0
20260504015508 40 206 0.0 0.0 0.00 0.00 0.00 73 1015.0
20260504015016 40 206 0.0 0.0 0.00 0.00 0.00 74 1014.9
20260504014541 41 206 0.0 0.0 0.00 0.00 0.00 71 1015.0
20260504014006 41 206 0.0 0.0 0.00 0.00 0.00 71 1015.0
20260504013504 41 206 0.0 0.0 0.00 0.00 0.00 70 1015.0
20260504013022 42 206 0.0 0.0 0.00 0.00 0.00 69 1014.9
20260504012508 42 224 0.0 0.0 0.00 0.00 0.00 68 1014.7
20260504012008 43 214 0.0 0.0 0.00 0.00 0.00 67 1014.7
20260504011522 43 214 0.0 0.0 0.00 0.00 0.00 65 1014.7
20260504011010 44 214 0.0 0.0 0.00 0.00 0.00 63 1014.7
20260504010513 45 132 0.0 0.0 0.00 0.00 0.00 62 1014.7
20260504010027 46 132 0.0 0.0 0.00 0.00 0.00 61 1014.7
20260504005509 47 132 0.0 0.0 0.00 0.00 0.00 59 1014.7
20260504005010 47 132 0.0 2.0 0.00 0.00 0.00 56 1014.7
20260504004528 48 132 0.0 2.0 0.00 0.00 0.00 55 1014.6
20260504004008 49 135 0.0 2.0 0.00 0.00 0.00 51 1014.6
20260504003507 50 146 0.0 3.0 0.00 0.00 0.00 49 1014.4
20260504003017 50 147 1.0 3.0 0.00 0.00 0.00 46 1014.4
20260504002504 51 178 1.0 4.0 0.00 0.00 0.00 45 1014.4
20260504002005 51 105 2.0 4.0 0.00 0.00 0.00 44 1014.4
20260504001504 51 160 1.0 8.0 0.00 0.00 0.00 43 1014.3
20260504001003 51 119 3.0 10.0 0.00 0.00 0.00 43 1014.4
20260504000502 51 151 5.0 10.0 0.00 0.00 0.00 42 1014.3
20260504000006 52 204 3.0 10.0 0.00 0.00 0.00 43 1014.4
20260503235504 52 165 4.0 10.0 0.00 0.00 0.00 42 1014.4
20260503235003 52 82 5.0 9.0 0.00 0.00 0.00 41 1014.3
20260503234512 52 210 4.0 11.0 0.00 0.00 0.00 41 1014.3
20260503234004 52 150 7.0 14.0 0.00 0.00 0.00 41 1014.3
20260503233504 53 163 5.0 15.0 0.00 0.00 0.00 41 1014.4
20260503233019 53 165 6.0 15.0 0.00 0.00 0.00 40 1014.4
20260503232504 53 111 6.0 14.0 0.00 0.00 0.00 40 1014.4
20260503232007 53 183 4.0 8.0 0.00 0.00 0.00 41 1014.4
20260503231520 53 220 4.0 10.0 0.00 0.00 0.00 40 1014.4
20260503231006 53 163 5.0 15.0 0.00 0.00 0.00 39 1014.4
20260503230504 53 214 6.0 15.0 0.00 0.00 0.00 39 1014.5
20260503230006 53 144 9.0 15.0 0.00 0.00 0.00 39 1014.5
20260503225504 53 200 7.0 17.0 0.00 0.00 0.00 39 1014.6
20260503225003 54 155 8.0 17.0 0.00 0.00 0.00 39 1014.6
20260503224507 54 212 7.0 12.0 0.00 0.00 0.00 39 1014.5
20260503224005 54 183 7.0 12.0 0.00 0.00 0.00 40 1014.5
20260503223503 54 210 5.0 18.0 0.00 0.00 0.00 39 1014.6
20260503223014 54 218 9.0 18.0 0.00 0.00 0.00 40 1014.6
20260503222504 54 203 7.0 14.0 0.00 0.00 0.00 39 1014.6
20260503222004 54 201 4.0 10.0 0.00 0.00 0.00 39 1014.5
20260503221519 54 207 4.0 11.0 0.00 0.00 0.00 38 1014.4
20260503221006 54 156 5.0 12.0 0.00 0.00 0.00 39 1014.5
20260503220506 55 154 8.0 14.0 0.00 0.00 0.00 38 1014.5
20260503220025 55 169 10.0 17.0 0.00 0.00 0.00 36 1014.5
20260503215503 55 233 8.0 17.0 0.00 0.00 0.00 37 1014.5
20260503215003 54 241 6.0 15.0 0.00 0.00 0.00 39 1014.5
20260503214521 54 182 6.0 17.0 0.00 0.00 0.00 41 1014.6
20260503214002 54 120 7.0 17.0 0.00 0.00 0.00 39 1014.6
20260503213504 54 195 9.0 17.0 0.00 0.00 0.00 38 1014.6
20260503213011 54 238 7.0 16.0 0.00 0.00 0.00 39 1014.6
20260503212504 54 210 9.0 20.0 0.00 0.00 0.00 40 1014.6
20260503212005 55 211 9.0 20.0 0.00 0.00 0.00 38 1014.6
20260503211515 55 184 6.0 16.0 0.00 0.00 0.00 39 1014.6
20260503211004 54 125 8.0 18.0 0.00 0.00 0.00 39 1014.6
20260503210504 54 155 8.0 18.0 0.00 0.00 0.00 39 1014.7
20260503210038 54 212 10.0 17.0 0.00 0.00 0.00 41 1014.7
20260503205509 53 221 6.0 15.0 0.00 0.00 0.00 40 1014.7
20260503205007 53 213 9.0 15.0 0.00 0.00 0.00 40 1014.8
20260503204526 53 158 6.0 16.0 0.00 0.00 0.00 40 1014.7
20260503204003 54 187 7.0 16.0 0.00 0.00 0.00 38 1014.7
20260503203503 54 207 6.0 15.0 0.00 0.00 0.00 40 1014.7
20260503203014 53 136 9.0 15.0 0.00 0.00 0.00 40 1014.9
20260503202504 53 213 7.0 15.0 0.00 0.00 0.00 40 1014.9
20260503202003 53 160 8.0 14.0 0.00 0.00 0.00 40 1014.9
20260503201513 53 170 5.0 18.0 0.00 0.00 0.00 42 1015.0
20260503201008 53 218 8.0 18.0 0.00 0.00 0.00 40 1015.1
20260503200507 53 180 9.0 16.0 0.00 0.00 0.00 41 1015.1
20260503200022 53 206 8.0 15.0 0.00 0.00 0.00 40 1015.1
20260503195504 53 201 9.0 15.0 0.00 0.00 0.00 41 1015.2
20260503195005 53 222 6.0 14.0 0.00 0.00 0.00 40 1015.3
20260503194523 53 207 3.0 13.0 0.00 0.00 0.00 43 1015.3
20260503194008 53 230 6.0 20.0 0.00 0.00 0.00 40 1015.4
20260503193508 54 130 8.0 20.0 0.00 0.00 0.00 38 1015.4
20260503193011 54 234 10.0 19.0 0.00 0.00 0.00 41 1015.4
20260503192504 53 108 7.0 15.0 0.00 0.00 0.00 39 1015.3
20260503192004 53 221 5.0 11.0 0.00 0.00 0.00 39 1015.4
20260503191513 53 129 5.0 18.0 0.00 0.00 0.00 41 1015.5
20260503191004 53 198 11.0 18.0 0.00 0.00 0.00 40 1015.7
20260503190506 53 178 10.0 22.0 0.00 0.00 0.00 40 1015.6
20260503190017 52 189 11.0 22.0 0.00 0.00 0.00 39 1015.8
20260503185507 53 111 8.0 15.0 0.00 0.00 0.00 38 1015.7
20260503185008 54 219 9.0 15.0 0.00 0.00 0.00 38 1015.8
20260503184527 53 174 4.0 18.0 0.00 0.00 0.00 41 1015.8
20260503184011 52 201 13.0 21.0 0.00 0.00 0.00 41 1015.9
20260503183508 52 210 10.0 21.0 0.00 0.00 0.00 43 1016.1
20260503183026 52 182 8.0 19.0 0.00 0.00 0.00 39 1016.0
20260503182510 53 207 10.0 18.0 0.00 0.00 0.00 39 1016.0
20260503182004 52 233 5.0 17.0 0.00 0.00 0.00 44 1016.1
20260503181513 52 167 9.0 23.0 0.00 0.00 0.00 40 1016.2
20260503181004 52 179 12.0 23.0 0.00 0.00 0.00 42 1016.1
20260503180503 52 158 8.0 17.0 0.00 0.00 0.00 41 1016.2
20260503180015 52 241 9.0 15.0 0.00 0.00 0.00 41 1016.2
20260503175504 51 227 8.0 15.0 0.00 0.00 0.00 42 1016.1
20260503175003 51 179 9.0 18.0 0.00 0.00 0.00 40 1016.3
20260503174522 51 243 6.0 19.0 0.00 0.00 0.00 45 1016.2
20260503174006 50 229 10.0 19.0 0.00 0.00 0.00 43 1016.4
20260503173508 50 211 10.0 18.0 0.00 0.00 0.00 42 1016.4
20260503173024 50 165 10.0 18.0 0.00 0.00 0.00 41 1016.5
20260503172507 50 193 8.0 19.0 0.00 0.00 0.00 44 1016.6
20260503172012 49 186 10.0 19.0 0.00 0.00 0.00 42 1016.6
20260503171527 50 139 8.0 20.0 0.00 0.00 0.00 43 1016.6
20260503171003 49 210 7.0 20.0 0.00 0.00 0.00 43 1016.6
20260503170504 50 219 10.0 17.0 0.00 0.00 0.00 41 1016.7
20260503151003 45 237 8.0 19.0 0.00 0.00 0.00 47 1017.4
20260503150503 45 186 6.0 15.0 0.00 0.00 0.00 50 1017.4
20260503131005 41 197 6.0 14.0 0.00 0.00 0.00 63 1017.4
20260503130504 41 194 5.0 19.0 0.00 0.00 0.00 63 1017.4
20260503110506 29 222 0.0 0.0 0.00 0.00 0.00 90 1016.8
20260503090504 29 222 0.0 0.0 0.00 0.00 0.00 87 1015.9
20260503081543 30 222 0.0 0.0 0.00 0.00 0.00 86 1015.8
20260503081007 30 222 0.0 0.0 0.00 0.00 0.00 87 1015.7
20260503080510 30 222 0.0 0.0 0.00 0.00 0.00 87 1015.7
20260503072507 30 222 0.0 0.0 0.00 0.00 0.00 85 1015.4
20260503072009 31 222 0.0 0.0 0.00 0.00 0.00 84 1015.4
20260503071535 31 222 0.0 0.0 0.00 0.00 0.00 84 1015.4
20260503071009 31 222 0.0 0.0 0.00 0.00 0.00 82 1015.3
20260503070504 31 222 0.0 0.0 0.00 0.00 0.00 82 1015.3
20260503055003 33 220 1.0 2.0 0.00 0.00 0.00 79 1015.4
20260503054528 34 220 0.0 2.0 0.00 0.00 0.00 78 1015.4
20260503054003 34 220 1.0 3.0 0.00 0.00 0.00 78 1015.4
20260503053504 34 216 2.0 3.0 0.00 0.00 0.00 78 1015.4
20260503053020 34 214 1.0 3.0 0.00 0.00 0.00 77 1015.4
20260503052509 35 237 2.0 3.0 0.00 0.00 0.00 77 1015.5
20260503052009 35 217 2.0 4.0 0.00 0.00 0.00 77 1015.4
20260503051521 35 214 1.0 4.0 0.00 0.00 0.00 76 1015.5
20260503051005 35 185 0.0 2.0 0.00 0.00 0.00 76 1015.6
20260503050511 35 210 0.0 0.0 0.00 0.00 0.00 76 1015.6
20260503050026 35 210 0.0 2.0 0.00 0.00 0.00 75 1015.6
20260503045507 36 210 0.0 2.0 0.00 0.00 0.00 75 1015.7
20260503045013 36 210 0.0 3.0 0.00 0.00 0.00 75 1015.7
20260503044521 36 215 0.0 5.0 0.00 0.00 0.00 74 1015.7
20260503044003 36 224 2.0 6.0 0.00 0.00 0.00 74 1015.7
20260503043505 36 202 2.0 6.0 0.00 0.00 0.00 74 1015.8
20260503043014 36 221 2.0 4.0 0.00 0.00 0.00 74 1015.8
20260503042504 36 215 2.0 7.0 0.00 0.00 0.00 74 1015.8